Domov               UVHVVR             MKGP            O straneh              
ZDRAVSTVENO VARSTVO RASTLIN
  MREŽA AGROMET. POSTAJ
 ► PROGNOSTIČNA OBVESTILA
AGROMETEOROLOŠKI PODATKI -
ARSO
OBVLADOVANJE TVEGANJ ZARADI
NEUGODNIH VREMENSKIH RAZMER
  ► NARAVNE NESREČE
  ► SUŠA/MOČA
  ► NAMAKANJE
  ► ŽLED (gozdarstvo)
KARTOGRAFSKI PRIKAZI
SPLETNE POVEZAVE
PROJEKTI IN PUBLIKACIJE

AGROMETEOROLOŠKA MREŽA: VREMENSKE POSTAJE IN FENOLOŠKA OPAZOVANJA

Pregled podatkov za lokacijo Svečina, meteorološka postaja 24393

Pregled senzorjev na lokaciji

ID Ime Zadnja
vrednost
Datum
zadnje
spremembe
Tip
senzorja
922 Omočenost lista (U) 0 U 19.8.2017 05:00 A730WET
923 Temperatura 2 m ( °C) 18,39 °C 19.8.2017 05:00 Generic -40 - +60 °C
924 Relativna vlaga 2 m (% RH) 78,46 % RH 19.8.2017 05:00 Generic 0 - 100 %
925 Padavine 0.2 mm (mm) 0 mm 19.8.2017 05:00 Generic 0.2 mm

Pregled podatkov zadnjih 24 ur

Zap.
št.
Datum in čas Svečina
Omočenost
lista
Padavine
0.2
mm
Relativna
vlaga
2
m
Temperatura
2
m
0 19.8.2017 04:00 0 0 78,46 18,39
1 19.8.2017 03:30 0 0 73,6 19,05
2 19.8.2017 03:00 0 0 75,65 18,53
3 19.8.2017 02:30 0 0 74,8 18,36
4 19.8.2017 02:00 0 0 70,94 18,93
5 19.8.2017 01:30 0 0 74,43 18,34
6 19.8.2017 01:00 0 0 72,89 18,8
7 19.8.2017 00:30 2 0 69,89 19,49
8 19.8.2017 00:00 2 0 66,18 20,27
9 18.8.2017 23:30 0 0 62,08 21,12
10 18.8.2017 23:00 1 0 60,95 21,44
11 18.8.2017 22:30 0 0 54,95 22,88
12 18.8.2017 22:00 0 0 50,09 24,3
13 18.8.2017 21:30 0 0 48,86 24,81
14 18.8.2017 21:00 0 0 46,25 25,27
15 18.8.2017 20:30 2 0 47,86 24,91
16 18.8.2017 20:00 1 0 43,86 25,84
17 18.8.2017 19:30 2 0 42,98 26,3
18 18.8.2017 19:00 1 0 38,61 27,47
19 18.8.2017 18:30 1 0 36,46 28,13
20 18.8.2017 18:00 2 0 37,07 28,67
21 18.8.2017 17:30 8 0 37,34 29,52
22 18.8.2017 17:00 10 0 36,51 30,06
23 18.8.2017 16:30 8 0 34,46 30,45
24 18.8.2017 16:00 10 0 34,26 30,74
25 18.8.2017 15:30 10 0 33,94 30,82
26 18.8.2017 15:00 10 0 34,16 30,96
27 18.8.2017 14:30 10 0 35,36 30,79
28 18.8.2017 14:00 10 0 35,29 30,72
29 18.8.2017 13:30 10 0 33,92 30,55
30 18.8.2017 13:00 10 0 34,24 30,43
31 18.8.2017 12:30 10 0 38,05 29,96
32 18.8.2017 12:00 10 0 40,93 29,5
33 18.8.2017 11:30 10 0 49,96 28,47
34 18.8.2017 11:00 10 0 51,97 27,81
35 18.8.2017 10:30 10 0 51,72 27,13
36 18.8.2017 10:00 10 0 54,95 26,57
37 18.8.2017 09:30 8 0 57,09 25,89
38 18.8.2017 09:00 3 0 60,98 24,81
39 18.8.2017 08:30 2 0 65,62 23,39
40 18.8.2017 08:00 0 0 66,67 22,39
41 18.8.2017 07:30 0 0 73,72 20,54
42 18.8.2017 07:00 0 0 75,82 19,9
43 18.8.2017 06:30 0 0 83,3 17,97
44 18.8.2017 06:00 0 0 87,25 17,14
45 18.8.2017 05:30 0 0 90,84 16,41
© 2011 Ministrstvo za kmetijstvo, gozdarstvo in prehrano. Vse pravice pridržane.